Weather Roundup
Issued by NWS Corpus Christi, TX

Home | Current Version | Previous Version | Text Only | Print | Product List | Glossary On
Versions: 1 2 3 4 5 6 7 8 9 10 11 12 13 14 15 16 17 18 19 20 21 22 23 24 25 26 27 28 29 30 31 32 33 34 35 36 37 38 39 40 41 42 43 44 45 46 47 48 49 50
000
ASUS44 KCRP 300810
HRRCRP

SOUTH TEXAS REGIONAL WEATHER ROUNDUP
NATIONAL WEATHER SERVICE CORPUS CHRISTI TX
300 AM CDT SUN AUG 30 2015


TXZ229>244-300900-
...CORPUS CHRISTI AREA OBSERVATIONS...

CITY           SKY/WX    TMP DP  RH WIND       PRES   REMARKS
CORPUS CHRISTI PTCLDY    71  61  70 CALM      29.97F
NAS CORPUS CHR PTCLDY    77  70  79 SW3       29.96F
ROCKPORT       CLEAR     75  66  73 SW5       29.97S
KINGSVILLE NAS PTCLDY    70  64  81 CALM      29.97F
ALICE          PTCLDY    68  64  87 S5        29.97F
FALFURRIAS     CLEAR     71  64  79 CALM      29.97F
$$

...VICTORIA AREA OBSERVATIONS...

CITY           SKY/WX    TMP DP  RH WIND       PRES   REMARKS
VICTORIA       MOCLDY    73  71  93 SE3       29.98F
BEEVILLE       FAIR      71  67  89 CALM      29.98S
PLEASANTON     MOCLDY    74  63  68 CALM      30.00S
SAN ANTONIO    CLOUDY    78  65  63 S12       30.01F
$$

...LAREDO AREA OBSERVATIONS...

CITY           SKY/WX    TMP DP  RH WIND       PRES   REMARKS
LAREDO         PTCLDY    79  70  74 SE12      30.00F
COTULLA        PTCLDY    76  63  64 SE7       29.98F
DEL RIO        PTCLDY    80  55  42 E8        29.97S
MCALLEN        CLEAR     80  73  79 E5        29.96F
HEBBRONVILLE   NOT AVBL
$$

...OTHER TEXAS OBSERVATIONS...

CITY           SKY/WX    TMP DP  RH WIND       PRES   REMARKS
BROWNSVILLE    CLEAR     76  74  93 CALM      29.95F
HOUSTON        MOCLDY    71  66  84 CALM      29.99F
COL. STATION   MOCLDY    75  68  78 S3        30.00F
AUSTIN         CLOUDY    76  66  71 S5        30.00F
WACO           CLOUDY    81  64  56 S9        29.98F
FORT WORTH     CLOUDY    79  65  62 S5        29.95F
WICHITA FALLS  MOCLDY    77  53  43 W3        29.95F
LUBBOCK        PTCLDY    62  56  80 W5        30.12F
EL PASO        PTCLDY    76  54  46 E5        30.12S
$$

...MARINE OBSERVATIONS...

STATION/POSITION TIME  SKY/WX   TEMP    WIND        PRES    VSBY  WAVE   SWELL
                                AIR SEA DIR/SP/G                  HT/PER HT/PER
                 (UTC)          (F)     (DEG/KT/KT) (MB)    (MI)  (FT/S) (FT/S)
PORT ARANSAS     0800            83 86  140/  7/  8 1015.6F
BUOY 90 E PORT A 0750            83 85  130/ 12/ 14 1014.8F         1/ 4
BUOY 45 SE BAFFI 0750            83 85  150/  6/  8 1014.5F         1/ 3
BUOY 200 E PT IS 0750            84 85  110/  8/ 10 1015.2F         1/ 6   2/ 6
BUOY 15 E GALVES 0750            83 86  170/  8/ 10 1015.0F         1
$$



USA.gov is the U.S. government's official web portal to all federal, state and local government web resources and services.